Location: Champeaux
(48.1468°N, 1.3119°W)
Time: 17:00:35
(UTC+00:00)

Daily predictions for brighter satellites

Satellite Brightness Start Highest point End
(mag) Time Altitude Azimuth Time Altitude Azimuth Time Altitude Azimuth
Terra 2.3 20:40:33 10° SE 20:45:04 47° ENE 20:49:35 10° N
SPOT 3 Rocket 4.3 20:41:36 10° SE 20:46:22 40° ENE 20:51:10 10° N
Cosmos 407 Rocket 4.2 20:41:52 10° SW 20:47:02 60° WNW 20:52:09 10° NNE
Cosmos 1842 3.0 20:43:29 10° S 20:47:09 83° E 20:50:49 10° N
Meteor 2-12 Rocket 4.5 20:42:44 10° S 20:48:52 77° E 20:55:02 10° NNE
Genesis I 3.7 20:47:57 10° SW 20:51:24 57° NW 20:54:55 10° NNE
EXPRESS MD2 2.5 20:48:38 10° SW 20:51:41 45° SSE 20:53:53 10° E
Cosmos 540 Rocket 3.6 20:47:09 10° NNW 20:52:20 83° WSW 20:57:29 10° SSE
MetOp-B 4.4 20:53:49 10° S 20:59:10 75° WSW 21:04:33 10° NNW
Cosmos 1933 Rocket 3.7 20:57:37 10° NNW 21:02:03 79° W 21:06:29 10° S
Cosmos 1954 Rocket 4.0 20:57:45 10° SSW 21:03:02 81° ESE 21:08:20 10° NNE
Resurs 01 Rocket 4.0 21:00:03 10° SW 21:03:20 20° W 21:06:37 10° NW
Landsat 4 4.0 21:00:50 10° SE 21:04:08 46° ENE 21:07:27 10° N
COSMOS 2406 3.5 20:58:36 10° SSW 21:04:21 75° WNW 21:10:07 10° NNE
CZ-4C R/B 3.8 21:01:24 10° N 21:05:31 71° WNW 21:09:39 10° SSW
Cosmos 1980 Rocket 3.7 21:01:15 10° NW 21:06:14 32° WSW 21:11:12 10° SSW
Cosmos 2322 Rocket 2.8 21:01:40 10° NNW 21:07:11 49° NE 21:12:36 10° SE
Meteor 1-13 Rocket 4.3 21:07:08 10° S 21:12:55 77° E 21:18:37 10° NNE
SeaSat 1 2.7 21:08:02 10° SSE 21:12:56 69° WSW 21:17:50 10° NNW
Cosmos 676 Rocket 4.0 21:07:51 10° SSW 21:13:10 81° ESE 21:18:30 10° NNE
Cosmos 1707 3.2 21:12:35 10° SSW 21:16:08 57° WNW 21:19:43 10° N
Cosmos 2278 3.8 21:11:42 10° NNW 21:17:27 79° WSW 21:22:56 11° SSE
MOS 1 Rocket 3.7 21:14:25 10° SSE 21:19:48 79° ENE 21:25:08 10° N
USA 234 3.2 21:17:43 10° NE 21:24:16 79° SE 21:30:50 10° SW
Cosmos 1400 Rocket 2.7 21:22:19 10° S 21:26:11 65° E 21:30:01 10° NNE
SL-4 R/B 2.7 21:23:02 10° W 21:26:48 55° N 21:30:50 10° ENE
Cosmos 1455 4.3 21:25:54 10° NE 21:27:26 12° ENE 21:28:59 10° E
Cosmos 2237 4.4 21:25:11 10° NNW 21:30:55 70° WSW 21:36:03 13° SSE
Meteor 2-10 Rocket 3.7 21:25:50 10° N 21:31:29 76° ENE 21:36:16 13° SSE
Cosmos 2219 Rocket 3.3 21:29:12 10° NNW 21:34:25 35° NE 21:39:27 11° ESE
Landsat 5 3.9 21:31:06 10° NNE 21:34:54 42° E 21:38:05 15° SSE
SPOT 5 4.2 21:31:28 10° SSW 21:35:16 31° W 21:39:10 10° NNW
Cosmos 1707 Rocket 4.0 21:31:38 13° SSE 21:35:20 46° E 21:39:36 10° NNE
Cosmos 841 Rocket 3.6 21:31:29 10° NNW 21:36:46 79° WSW 21:41:16 14° SSE
ERS-1 Rocket 3.6 21:32:38 10° S 21:37:31 51° W 21:42:26 10° NNW
ATLAS CENTAUR R/B 1.8 21:35:13 13° S 21:37:50 30° ESE 21:41:00 10° ENE
Cosmos 1315 Rocket 4.4 21:39:54 15° ESE 21:41:43 20° E 21:44:40 10° NE
SJ 16-02 2.4 21:39:28 17° SE 21:41:48 26° E 21:45:25 10° NE
ARIANE 5 R/B 4.1 21:39:26 12° ESE 21:42:31 24° ENE 21:45:59 10° N
Meteor 1-4 Rocket 3.7 21:41:42 17° ESE 21:42:35 20° E 21:44:51 10° NE
SL-27 R/B 2.8 21:41:51 22° SE 21:42:53 30° ESE 21:45:24 10° NE
Okean 3 4.1 21:41:42 17° SSE 21:44:21 37° E 21:48:12 10° NNE
Spot 2 Rocket 3.9 21:40:09 10° S 21:45:04 59° W 21:50:07 10° NNW
Cosmos 1953 3.8 21:42:13 10° NNE 21:45:20 23° ENE 21:47:31 15° ESE
S3M 4.4 21:42:13 10° NNW 21:48:32 66° W 21:54:45 10° S
Aureole 3 3.9 21:49:38 19° SSE 21:52:03 45° E 21:56:30 10° NNE
Cosmos 1300 2.5 21:51:05 10° NNW 21:54:39 78° W 21:57:03 19° S
Cosmos 1733 Rocket 3.0 21:51:55 10° N 21:56:21 85° E 21:59:30 19° S
Meteor 1-23 Rocket 4.3 21:50:41 10° SSW 21:56:21 81° WNW 22:02:07 10° N
Spot 1 4.2 21:52:20 10° NNE 21:56:50 78° ESE 22:01:15 12° S
Cosmos 1655 Rocket 4.1 21:51:54 10° S 21:58:19 88° WNW 22:04:45 10° N
Cosmos 2360 Rocket 2.2 21:52:40 10° NNW 21:58:24 86° ENE 22:02:32 19° SSE
Cosmos 839 Rocket 4.3 21:54:39 10° NW 22:01:46 68° NE 22:06:44 17° SE
H-2A R/B 4.3 21:59:14 12° ESE 22:02:03 22° ENE 22:05:20 10° NNE
GP-B 4.3 21:58:27 10° NNE 22:02:16 28° E 22:04:27 19° SE
ATLAS 2AS CENTAUR R/B 2.6 21:59:37 10° NW 22:06:32 90° SSW 22:11:32 19° SE
Cosmos 2333 Rocket 2.2 22:01:16 10° NNW 22:07:04 89° WSW 22:11:07 21° SSE
SL-16 R/B 3.0 22:02:01 10° NW 22:07:21 43° WSW 22:11:42 15° S
SL-14 R/B 3.5 22:04:47 12° SSW 22:08:09 64° WNW 22:11:57 10° N
Cosmos 1908 Rocket 4.3 22:04:37 10° N 22:08:43 39° ENE 22:11:05 21° SE
Ariane Rocket 4.1 22:05:08 10° SSW 22:09:48 38° W 22:14:34 10° NNW
Cosmos 2228 Rocket 3.4 22:05:35 11° SSW 22:09:53 71° W 22:14:28 10° N
MetOp-A 4.2 22:07:05 18° S 22:10:56 75° WSW 22:16:14 10° NNW
Cosmos 807 4.3 22:08:48 19° SSW 22:11:04 80° W 22:14:06 10° N
BREEZE-M DEB (TANK) 2.9 22:09:28 10° WSW 22:12:01 86° NNW 22:17:59 10° ENE
RESURS DK-1 3.1 22:08:45 10° NW 22:12:36 41° WSW 22:14:58 20° S
Atlas Centaur 2 4.2 22:09:06 10° SW 22:14:37 20° S 22:16:48 18° S
Okean 1-7 3.3 22:13:21 24° SSE 22:15:42 50° E 22:19:54 10° NNE
Cosmos 1346 Rocket 3.3 22:15:18 10° NNW 22:19:03 50° W 22:21:26 20° SSW
Cosmos 1833 4.1 22:16:37 12° SSW 22:21:54 71° ESE 22:27:30 10° NNE
BlueWalker 3 4.3 22:24:28 10° E 22:24:28 10° E 22:24:29 10° E
BREEZE-M DEB (TANK) 3.5 22:16:24 10° W 22:22:18 44° NNW 22:24:41 10° ENE
Cosmos 1850 Rocket 4.3 22:17:23 10° SSW 22:22:36 68° WNW 22:27:48 10° NNE
Terra 3.7 22:19:11 10° SW 22:22:53 23° W 22:26:37 10° NW
Cosmos 1242 Rocket 3.3 22:23:20 23° E 22:23:21 23° E 22:25:38 10° NE
Meteor 1-16 Rocket 4.4 22:25:06 10° NNW 22:31:02 78° W 22:35:01 22° S
Cosmos 2237 Rocket 4.1 22:26:59 10° N 22:31:28 23° NE 22:35:55 10° E
Cosmos 2322 4.2 22:26:42 10° NNW 22:32:18 53° ENE 22:36:10 20° SE
USA 281 3.2 22:28:55 21° SSE 22:33:30 85° ENE 22:40:08 10° NNW
ALOS 2 4.0 22:32:43 17° ESE 22:35:12 28° ENE 22:38:57 10° N
Cosmos 2333 4.4 22:32:28 10° NNW 22:38:12 68° WSW 22:41:39 25° S
OPS 8737 3.9 22:35:27 10° NW 22:38:23 85° SW 22:39:11 45° SE
CZ-2C R/B 3.6 22:36:49 10° NNE 22:41:15 75° ESE 22:43:37 27° S
CZ-4C R/B 3.5 22:42:24 15° ESE 22:42:40 15° ESE 22:45:34 10° ENE
Cosmos 968 Rocket 3.8 22:39:30 10° SW 22:44:36 64° WNW 22:49:47 10° NNE
Cosmos 1814 Rocket 4.4 22:44:26 10° NNW 22:49:36 55° WSW 22:52:30 25° S
Cosmos 1703 Rocket 3.5 22:48:43 30° S 22:50:54 77° E 22:55:22 10° NNE
Cosmos 2322 Rocket 3.4 22:46:04 10° NW 22:51:00 31° WSW 22:54:24 17° SSW
Spot 4 4.2 22:49:10 27° SE 22:51:39 57° ENE 22:56:22 10° N
SL-08 R/B 4.4 22:48:53 22° S 22:53:03 89° W 22:59:12 10° N
Cosmos 158 Rocket 4.4 22:49:57 10° NNW 22:55:12 55° ENE 22:58:13 24° SE
DNEPR-1 R/B 4.4 22:49:50 10° NW 22:56:31 69° WSW 22:59:29 29° SSE
Okean 2 3.7 22:54:53 25° SSW 22:57:03 60° WNW 23:01:02 10° N
EXPRESS MD2 2.7 22:56:53 10° W 22:59:04 51° N 22:59:34 39° NE
Cosmos 2242 Rocket 4.5 22:57:30 28° SE 22:59:07 37° E 23:03:19 10° NNE
Cosmos 2297 Rocket 3.6 22:57:54 19° ESE 22:59:30 21° E 23:03:35 10° NE
PSLV R/B 3.8 22:56:46 10° NNE 23:00:47 88° ESE 23:02:28 34° SSW
Cosmos 1455 2.5 22:58:47 10° NNW 23:02:11 51° W 23:03:18 35° SSW
Cosmos 2208 Rocket 4.1 22:57:58 10° NNW 23:03:10 67° ENE 23:05:55 28° SE
Cosmos 1932 4.5 22:59:17 10° SW 23:05:39 87° NW 23:11:58 10° NE
SL-4 R/B 2.6 23:02:00 10° WNW 23:05:57 58° NNE 23:10:09 10° E
USA 234 4.2 23:00:49 10° NE 23:07:06 51° NNW 23:13:22 10° W
COSMOS 2428 2.7 23:06:53 10° NNW 23:12:37 83° ENE 23:15:45 28° SSE
CENTAUR R/B 4.4 23:12:48 10° ESE 23:14:03 11° E 23:15:21 10° E
COSMOS 2455 3.4 23:12:16 29° SSE 23:14:37 40° ESE 23:20:12 10° NE
Meteor 1-4 Rocket 4.4 23:13:41 14° WSW 23:15:20 20° WNW 23:17:40 10° NNW
ATLAS CENTAUR R/B 3.0 23:12:20 10° WSW 23:15:27 29° NW 23:18:41 10° NNE
GENESIS II 4.0 23:14:53 49° S 23:15:35 61° SE 23:19:11 10° NE
Cosmos 1315 Rocket 4.0 23:15:10 18° SW 23:17:36 36° WNW 23:21:20 10° N
Cosmos 2219 Rocket 2.8 23:13:06 10° NW 23:18:29 46° WSW 23:21:08 27° SSW
ARIANE 5 R/B 3.4 23:16:54 27° SSW 23:18:42 40° W 23:22:48 10° NNW
SJ 16-02 2.7 23:16:10 11° SW 23:20:00 35° WNW 23:24:00 10° N
Cosmos 1953 3.6 23:17:48 10° NNW 23:21:10 29° W 23:22:38 22° SW
PSLV R/B 4.1 23:27:58 10° NNE 23:32:01 42° E 23:33:06 34° SE
Cosmos 304 Rocket 4.4 23:31:07 33° SE 23:32:30 41° ESE 23:36:58 10° NE
Cosmos 1745 Rocket 4.1 23:30:01 25° SSW 23:33:55 73° W 23:40:19 10° N
H-2A R/B 3.1 23:35:13 32° SSW 23:36:42 45° W 23:40:50 10° NNW
GP-B 4.4 23:35:32 10° NNW 23:39:27 32° W 23:41:46 19° SW
Cosmos 2360 Rocket 4.2 23:38:13 10° WNW 23:41:35 16° W 23:44:17 12° SW
Nadezhda 1 Rocket 4.5 23:36:39 10° NNW 23:42:44 51° W 23:46:09 25° SSW
Cosmos 1486 Rocket 3.9 23:41:55 34° S 23:44:13 76° ESE 23:49:26 10° NNE
Cosmos 2181 Rocket 4.2 23:40:00 10° N 23:46:10 62° ENE 23:49:34 27° SSE
Cosmos 1825 3.6 23:47:12 22° ESE 23:47:39 22° E 23:50:21 10° NE
Cosmos 1782 Rocket 4.5 23:45:04 10° NNW 23:49:03 37° W 23:50:34 28° SW
Cosmos 2333 Rocket 4.2 23:47:16 10° WNW 23:50:30 15° W 23:53:07 12° SW
Cosmos 1408 3.0 23:54:41 35° W 23:55:04 36° WNW 23:57:53 10° N
Cosmos 1242 Rocket 4.4 23:54:31 13° W 23:55:24 14° WNW 23:57:04 10° NNW
